Regional Weather Roundup
Issued by NWS Green Bay, WI

Home | Current Version | Previous Version | Graphics & Text | Print | Product List | Glossary Off
Versions: 1 2 3 4 5 6 7 8 9 10 11 12 13 14 15 16 17 18 19 20 21 22 23 24 25 26 27 28 29 30 31 32 33 34 35 36 37 38 39 40 41 42 43 44 45 46 47 48 49 50

000
ASUS43 KGRB 271400
RWRGRB

NORTH-CENTRAL AND NORTHEAST WISCONSIN REGIONAL WEATHER ROUNDUP
NATIONAL WEATHER SERVICE GREEN BAY WI
900 AM CDT TUE SEP 27 2016

WIZ005-009-010>012-018-019-271500-
NORTH CENTRAL WISCONSIN

CITY           SKY/WX    TMP DP  RH WIND       PRES   REMARKS
IRONWOOD       RAIN      48  47  96 W13       29.62R
MANITOWISH WTR NOT AVBL
ARBOR VITAE    NOT AVBL
EAGLE RIVER    NOT AVBL
LAND O LAKES   NOT AVBL
RHINELANDER    CLOUDY    49  47  93 W13       29.63S
PHILLIPS       NOT AVBL
ANTIGO         NOT AVBL
TOMAHAWK       NOT AVBL
MERRILL        NOT AVBL
$$

WIZ013-073-271500-
NORTHEAST WISCONSIN

CITY           SKY/WX    TMP DP  RH WIND       PRES   REMARKS
IRON MOUNTAIN  PTSUNNY   52  45  77 W15G22    29.55R
MARINETTE      CLOUDY    54  45  71 W8        29.59F
$$

WIZ017-030-035>037-045-271500-
CENTRAL WISCONSIN

CITY           SKY/WX    TMP DP  RH WIND       PRES   REMARKS
MEDFORD        NOT AVBL
WAUSAU         CLOUDY    50  46  86 W15       29.67S
MOSINEE        NOT AVBL
MARSHFIELD     LGT RAIN  51  43  74 W12G22    29.71S
WISC RAPIDS    PTSUNNY   52  43  71 W13G20    29.73S
STEVENS POINT  NOT AVBL
WAUPACA        NOT AVBL
SHAWANO        NOT AVBL
CLINTONVILLE   NOT AVBL
WAUTOMA        CLOUDY    52  43  71 W10       29.73S
$$

WIZ038-039-048-051-271500-
FOX VALLEY

CITY           SKY/WX    TMP DP  RH WIND       PRES   REMARKS
NWS GREEN BAY  PTSUNNY   53  46  77 W12G20    29.66R
APPLETON       PTSUNNY   52  39  62 W12G17    29.67S
OSHKOSH        CLOUDY    52  42  69 VRB7G17   29.70R
FOND DU LAC    CLOUDY    53  42  66 W13G20    29.71F
$$

WIZ022-050-052-271500-
EAST CENTRAL WISCONSIN

CITY           SKY/WX    TMP DP  RH WIND       PRES   REMARKS
EPHRAIM        NOT AVBL
WASHINGTON ISL NOT AVBL
STURGEON BAY   CLOUDY    55  46  71 W16G23    29.62F
MANITOWOC      NOT AVBL
SHEBOYGAN      CLOUDY    53  41  63 W17G24    29.70S
$$

LMZ563-521-522-541>543-271500-
LAKESHORE

STATION/POSITION TIME  TEMP    WIND        PRES    VSBY  WAVE
                       AIR SEA DIR/SP/G                  HT/PER
                 (UTC) (F)     (DEG/KT/KT) (MB)    (MI)  (FT/S)
SHEBOYGAN LKSHOR 1300   53     260/ 14/ 18 1005.2F
KEWAUNEE LKSHORE 1300   54     260/  8/ 13 1003.5F
NORTHPORT PIER   1300   54     250/  7/ 16 1001.7F
N MID LAKE BUOY  1250   57 66  260/ 25/ 31 1000.1S         6/ 6
CHAMBERS ISLAND  1300   54     230/ 12/ 19 1001.7F
MENOMINEE LKSHOR 1300   54     230/ 12/ 15 1001.8F
$$




USA.gov is the U.S. government's official web portal to all federal, state and local government web resources and services.